Regional Weather Roundup
Issued by NWS

Home | Current Version | Previous Version | Text Only | Print | Product List | Glossary Off
Versions: 1 2 3 4 5 6 7 8 9 10 11 12 13 14 15 16 17 18 19 20 21 22 23 24 25 26 27 28 29 30 31 32 33 34 35 36 37 38 39 40 41 42 43 44 45 46 47 48 49 50

000
ASUS43 KLSX 191757
RWRMO

WEATHER SUMMARY FOR MISSOURI
NATIONAL WEATHER SERVICE SPRINGFIELD MO
1200 PM CST SUN NOV 19 2017

NOTE: "FAIR" INDICATES FEW OR NO CLOUDS BELOW 12,000 FEET WITH NO
       SIGNIFICANT WEATHER AND/OR OBSTRUCTIONS TO VISIBILITY.
       CURRENT SKY AND/OR WEATHER CONDITIONS ARE NOT AVAILABLE FOR
       CHILLICOTHE AND FARMINGTON.

MOZ001>031-035>038-043-044-053-054-191900-
...NORTHERN AND WESTERN MISSOURI...

CITY           SKY/WX    TMP DP  RH WIND       PRES   REMARKS
KANSAS CTY INT SUNNY     45  22  40 SW9       30.24F
6HR MIN TEMP:  26; 6HR MAX TEMP:  46;

LEE`S SUMMIT   SUNNY     44  23  43 VRB6      30.25F
6HR MIN TEMP:  28; 6HR MAX TEMP:  44;

ST JOSEPH      SUNNY     44  21  40 SW9       30.23F
6HR MIN TEMP:  22; 6HR MAX TEMP:  44;

CHILLICOTHE      N/A     42  22  44 SW6       30.25F
6HR MIN TEMP:  26; 6HR MAX TEMP:  42;


$$
MOZ066>068-077>081-088>096-101>105-191900-
...SOUTHWEST MISSOURI...

CITY           SKY/WX    TMP DP  RH WIND       PRES   REMARKS
SPRINGFIELD    SUNNY     46  25  43 N8        30.27F
6HR MIN TEMP:  31; 6HR MAX TEMP:  46;

JOPLIN         SUNNY     46  26  45 CALM      30.30F
6HR MIN TEMP:  28; 6HR MAX TEMP:  47;

BRANSON        SUNNY     46  23  39 N14       30.28F

$$
MOZ032>034-039>042-045>050-055>058-069>072-191900-
...CENTRAL MISSOURI...

CITY           SKY/WX    TMP DP  RH WIND       PRES   REMARKS
COLUMBIA       NOT AVBL
JEFFERSON CITY SUNNY     39  20  46 W14       30.28F
6HR MIN TEMP:  30; 6HR MAX TEMP:  40;

ROLLA          SUNNY     39  18  42 NW10      30.25F
6HR MIN TEMP:  28; 6HR MAX TEMP:  39;

SEDALIA        SUNNY     43  24  47 VRB6      30.27F
6HR MIN TEMP:  30; 6HR MAX TEMP:  43;

WARRENSBURG    SUNNY     43  21  42 SW3       30.27F

$$
MOZ051-052-059>065-191900-
...EAST CENTRAL MISSOURI...

CITY           SKY/WX    TMP DP  RH WIND       PRES   REMARKS
ST LOUIS INTL  MOSUNNY   40  21  46 NW14G23   30.24F
6HR MIN TEMP:  30; 6HR MAX TEMP:  40;


$$
MOZ072>076-082>087-097>100-106>115-191900-
...SOUTH CENTRAL AND SOUTHEAST MISSOURI...

CITY           SKY/WX    TMP DP  RH WIND       PRES   REMARKS
CAPE GIRARDEAU SUNNY     43  23  45 N13       30.22F
6HR MIN TEMP:  31; 6HR MAX TEMP:  43;

POPLAR BLUFF   SUNNY     45  18  34 NW3       30.23F
6HR MIN TEMP:  34; 6HR MAX TEMP:  46;

WEST PLAINS    SUNNY     48  18  30 N16G24    30.25F
6HR MIN TEMP:  32; 6HR MAX TEMP:  48;


$$



USA.gov is the U.S. government's official web portal to all federal, state and local government web resources and services.